Change the Weather History Date:

Thursday, November 28, 2013

  Actual Average Record
Temperature  
Mean Temperature 61 °F 74 °F  
Max Temperature 73 °F 80 °F 88 °F (1948)
Min Temperature 48 °F 67 °F 38 °F (1956)
Degree Days  
Heating Degree Days 4 0  
Month to date heating degree days 4 0  
Since 1 July heating degree days 4 0  
Cooling Degree Days 0 9  
Month to date cooling degree days 316 301  
Year to date cooling degree days 4343 4495  
Growing Degree Days 10 (Base 50)    
Moisture  
Dew Point 52 °F    
Average Humidity 73    
Maximum Humidity 93    
Minimum Humidity 53    
Precipitation  
Precipitation 0.00 in 0.10 in 2.00 in (1947)
Month to date precipitation 10.68 3.03  
Year to date precipitation 75.02 59.51  
Snow  
Snow 0.00 in - - ()
Month to date snowfall 0.0  
Since 1 July snowfall 0.0  
Since 1 September snowfall 0.0  
Snow Depth 0.00 in    
Sea Level Pressure  
Sea Level Pressure 30.19 in    
Wind  
Wind Speed 10 mph (NNE)    
Max Wind Speed 18 mph    
Max Gust Speed 25 mph    
Visibility 10 miles    
Events      
T = Trace of Precipitation, MM = Missing Value Source: NWS Daily Summary

Daily Weather History Graph

Daily Weather History Graph

Search for Another Location

Airport or City:

Trip Planner

Search our weather history database for the weather conditions in past years. The results will help you decide how hot, cold, wet, or windy it might be!

Date:

Astronomy

Nov. 28, 2013 Rise Set
Actual Time 6:48 AM EST 5:28 PM EST
Civil Twilight 6:23 AM EST 5:53 PM EST
Nautical Twilight 5:55 AM EST 6:21 PM EST
Astronomical Twilight 5:27 AM EST 6:49 PM EST
Moon 2:14 AM EST (11/28) 2:14 PM EST (11/28)
Length of Visible Light 11h 29m
Length of Day
10h 39m
Waning Crescent, 22% of the Moon is Illuminated
Nov 28
Waning Crescent
Dec 2
New
Dec 9
First Quarter
Dec 17
Full
Dec 25
Last Quarter

Hourly Weather History & Observations

Time (EST) Temp. Dew Point Humidity Pressure Visibility Wind Dir Wind Speed Gust Speed Precip Events Conditions
12:53 AM 57.0 °F 51.1 °F 81% 30.12 in 10.0 mi NNW 10.4 mph - N/A   Partly Cloudy
1:53 AM 54.0 °F 50.0 °F 86% 30.13 in 10.0 mi North 10.4 mph - N/A   Partly Cloudy
2:53 AM 53.1 °F 48.0 °F 83% 30.12 in 10.0 mi NNW 12.7 mph - N/A   Scattered Clouds
3:53 AM 51.1 °F 46.9 °F 86% 30.14 in 10.0 mi NW 10.4 mph - N/A   Partly Cloudy
4:53 AM 50.0 °F 46.9 °F 89% 30.15 in 10.0 mi NW 6.9 mph - N/A   Partly Cloudy
5:53 AM 48.9 °F 46.0 °F 90% 30.17 in 10.0 mi NW 9.2 mph - N/A   Partly Cloudy
6:53 AM 48.0 °F 45.0 °F 89% 30.19 in 10.0 mi NW 6.9 mph - N/A   Partly Cloudy
7:53 AM 48.9 °F 46.0 °F 90% 30.21 in 10.0 mi NNW 8.1 mph - N/A   Partly Cloudy
8:53 AM 53.1 °F 48.0 °F 83% 30.22 in 10.0 mi NW 8.1 mph - N/A   Partly Cloudy
9:53 AM 57.9 °F 50.0 °F 75% 30.22 in 10.0 mi NNW 6.9 mph - N/A   Clear
10:53 AM 63.0 °F 53.1 °F 70% 30.22 in 10.0 mi North 8.1 mph - N/A   Clear
11:53 AM 68.0 °F 55.9 °F 65% 30.19 in 10.0 mi North 9.2 mph - N/A   Clear
12:53 PM 71.1 °F 59.0 °F 66% 30.16 in 10.0 mi NNE 8.1 mph 23.0 mph N/A   Partly Cloudy
1:53 PM 72.0 °F 57.9 °F 61% 30.15 in 10.0 mi NE 11.5 mph 21.9 mph N/A   Scattered Clouds
2:53 PM 71.1 °F 55.0 °F 57% 30.15 in 10.0 mi ENE 12.7 mph 23.0 mph N/A   Mostly Cloudy
3:53 PM 70.0 °F 53.1 °F 55% 30.17 in 10.0 mi NE 10.4 mph - N/A   Mostly Cloudy
4:53 PM 70.0 °F 55.0 °F 59% 30.17 in 10.0 mi ENE 12.7 mph - N/A   Mostly Cloudy
5:53 PM 69.1 °F 52.0 °F 54% 30.19 in 10.0 mi NE 11.5 mph - N/A   Partly Cloudy
6:53 PM 68.0 °F 53.1 °F 59% 30.22 in 10.0 mi NNE 5.8 mph - N/A   Partly Cloudy
7:53 PM 69.1 °F 55.0 °F 61% 30.23 in 10.0 mi ENE 10.4 mph - N/A   Scattered Clouds
8:53 PM 70.0 °F 55.9 °F 61% 30.24 in 10.0 mi ENE 13.8 mph 19.6 mph N/A   Mostly Cloudy
9:53 PM 69.1 °F 54.0 °F 58% 30.24 in 10.0 mi ENE 8.1 mph - N/A   Partly Cloudy
10:53 PM 70.0 °F 57.9 °F 65% 30.24 in 10.0 mi East 10.4 mph - N/A   Overcast
11:53 PM 69.1 °F 54.0 °F 58% 30.22 in 10.0 mi ENE 8.1 mph - N/A   Partly Cloudy